This demonstration page uses our WeatherBlox Daily Observations layout. Learn more.

Hourly Observations for April 30, 2019

Temp ( °F °C ) Dew Point ( °F °C ) Humidity (%) Winds ( mph kmh ) Pressure ( in mb ) Visibility ( mi km ) Precip ( " mm )
12:15 am 00:15 Clear 55 13 52 11 88 88 S 7 11 30.18 1022 10 16.09344 0 0
12:35 am 00:35 Clear 55 13 52 11 88 88 S 7 11 30.18 1022 10 16.09344 0 0
12:55 am 00:55 Clear 54 12 52 11 94 94 S 6 9 30.18 1022 10 16.09344 0 0
1:15 am 01:15 Clear 54 12 52 11 94 94 S 7 11 30.18 1022 10 16.09344 0 0
1:35 am 01:35 Clear 54 12 52 11 94 94 S 7 11 30.18 1022 10 16.09344 0 0
1:55 am 01:55 Mostly Cloudy 54 12 52 11 94 94 S 7 11 30.18 1022 10 16.09344 0 0
2:15 am 02:15 Cloudy 54 12 52 11 94 94 SSW 5 7 30.15 1021 10 16.09344 0 0
2:35 am 02:35 Mostly Cloudy 54 12 52 11 94 94 SSW 5 7 30.15 1021 10 16.09344 0 0
2:55 am 02:55 Partly Cloudy 54 12 52 11 94 94 S 6 9 30.15 1021 10 16.09344 0 0
3:15 am 03:15 Partly Cloudy 54 12 52 11 94 94 S 6 9 30.12 1020 10 16.09344 0 0
3:35 am 03:35 Clear 54 12 52 11 94 94 S 5 7 30.12 1020 10 16.09344 0 0
3:55 am 03:55 Clear 52 11 52 11 100 100 Calm 30.12 1020 10 16.09344 0 0
4:15 am 04:15 Clear 52 11 52 11 100 100 Calm 30.15 1021 10 16.09344 0 0
4:35 am 04:35 Clear 52 11 52 11 100 100 Calm 30.15 1021 10 16.09344 0 0
4:55 am 04:55 Clear 52 11 52 11 100 100 Calm 30.15 1021 10 16.09344 0 0
5:15 am 05:15 Clear 50 10 50 10 100 100 Calm 30.18 1022 10 16.09344 0 0
5:35 am 05:35 Clear 50 10 50 10 100 100 Calm 30.18 1022 10 16.09344 0 0
5:55 am 05:55 Clear 48 9 48 9 100 100 Calm 30.18 1022 7 11.265408 0 0
6:15 am 06:15 Sunny 48 9 48 9 100 100 Calm 30.21 1023 10 16.09344 0 0
6:35 am 06:35 Sunny 50 10 50 10 100 100 NE 3 6 30.21 1023 10 16.09344 0 0
6:55 am 06:55 Sunny 50 10 50 10 100 100 Calm 30.21 1023 10 16.09344 0 0
7:15 am 07:15 Sunny 52 11 52 11 100 100 Calm 30.21 1023 10 16.09344 0 0
7:35 am 07:35 Sunny 54 12 54 12 100 100 Calm 30.18 1022 10 16.09344 0 0
7:55 am 07:55 Sunny 54 12 54 12 100 100 Calm 30.18 1022 10 16.09344 0 0
8:15 am 08:15 Sunny 55 13 54 12 94 94 Calm 30.21 1023 10 16.09344 0 0
8:35 am 08:35 Sunny 55 13 54 12 94 94 Calm 30.21 1023 10 16.09344 0 0
8:55 am 08:55 Sunny 57 14 54 12 88 88 Calm 30.21 1023 10 16.09344 0 0
9:15 am 09:15 Sunny 59 15 54 12 82 82 S 3 6 30.21 1023 10 16.09344 0 0
9:35 am 09:35 Sunny 59 15 55 13 88 88 SSW 5 7 30.21 1023 10 16.09344 0 0
9:55 am 09:55 Sunny 61 16 55 13 83 83 Calm 30.21 1023 10 16.09344 0 0
10:15 am 10:15 Sunny 63 17 57 14 83 83 Calm 30.21 1023 10 16.09344 0 0
10:35 am 10:35 Sunny 64 18 59 15 83 83 Calm 30.21 1023 10 16.09344 0 0
10:55 am 10:55 Sunny 68 20 59 15 73 73 Calm 30.21 1023 10 16.09344 0 0
11:15 am 11:15 Sunny 68 20 59 15 73 73 Calm 30.21 1023 10 16.09344 0 0
11:35 am 11:35 Sunny 70 21 59 15 69 69 Calm 30.21 1023 10 16.09344 0 0
11:55 am 11:55 Sunny 72 22 61 16 69 69 Calm 30.21 1023 10 16.09344 0 0
12:15 pm 12:15 Sunny 73 23 59 15 61 61 WNW 5 7 30.21 1023 10 16.09344 0 0
12:35 pm 12:35 Sunny 73 23 61 16 65 65 Calm 30.21 1023 5 8.04672 0 0
12:55 pm 12:55 Sunny 73 23 61 16 65 65 Calm 30.21 1023 10 16.09344 0 0
1:15 pm 13:15 Sunny 75 24 61 16 61 61 NNW 3 6 30.21 1023 10 16.09344 0 0
1:35 pm 13:35 Sunny 77 25 61 16 57 57 NW 6 9 30.18 1022 10 16.09344 0 0
1:55 pm 13:55 Sunny 79 26 61 16 54 54 Calm 30.18 1022 10 16.09344 0 0
2:15 pm 14:15 Partly Cloudy 79 26 61 16 54 54 NNE 3 6 30.18 1022 10 16.09344 0 0
2:35 pm 14:35 Partly Cloudy 79 26 61 16 54 54 Calm 30.18 1022 10 16.09344 0 0
2:55 pm 14:55 Partly Cloudy 79 26 61 16 54 54 ESE 3 6 30.18 1022 10 16.09344 0 0
3:15 pm 15:15 Mostly Cloudy 81 27 61 16 51 51 N 3 6 30.18 1022 10 16.09344 0 0
3:35 pm 15:35 Mostly Cloudy 79 26 63 17 58 58 ENE 6 9 30.18 1022 10 16.09344 0 0
3:55 pm 15:55 Partly Cloudy 79 26 61 16 54 54 Calm 30.18 1022 10 16.09344 0 0
4:15 pm 16:15 Partly Cloudy 79 26 63 17 58 58 E 3 6 30.18 1022 10 16.09344 0 0
4:35 pm 16:35 Mostly Cloudy 81 27 61 16 51 51 ENE 6 9 30.18 1022 10 16.09344 0 0
4:55 pm 16:55 Partly Cloudy 79 26 61 16 54 54 NE 5 7 30.18 1022 10 16.09344 0 0
5:15 pm 17:15 Partly Cloudy 81 27 63 17 54 54 ENE 6 9 30.18 1022 10 16.09344 0 0
5:35 pm 17:35 Partly Cloudy 81 27 63 17 54 54 NE 7 11 30.18 1022 10 16.09344 0 0
5:55 pm 17:55 Mostly Cloudy 79 26 63 17 58 58 ENE 3 6 30.21 1023 10 16.09344 0 0
6:15 pm 18:15 Cloudy 79 26 63 17 58 58 NE 6 9 30.21 1023 10 16.09344 0 0
6:35 pm 18:35 Cloudy 79 26 63 17 58 58 ENE 7 11 30.21 1023 10 16.09344 0 0
6:55 pm 18:55 Cloudy 79 26 63 17 58 58 ENE 6 9 30.21 1023 10 16.09344 0 0
7:15 pm 19:15 Mostly Cloudy 77 25 63 17 61 61 ENE 5 7 30.21 1023 10 16.09344 0 0
7:35 pm 19:35 Mostly Cloudy 77 25 63 17 61 61 NNE 5 7 30.24 1024 10 16.09344 0 0
8:15 pm 20:15 Mostly Cloudy 72 22 64 18 78 78 NE 13 20 30.24 1024 10 16.09344 0 0
8:35 pm 20:35 Partly Cloudy 70 21 66 19 88 88 NE 6 9 30.24 1024 10 16.09344 0 0
8:55 pm 20:55 Partly Cloudy 68 20 64 18 88 88 ENE 7 11 30.27 1025 10 16.09344 0 0
9:15 pm 21:15 Clear 68 20 64 18 88 88 NE 5 7 30.27 1025 10 16.09344 0 0
9:35 pm 21:35 Mostly Cloudy 68 20 64 18 88 88 ENE 5 7 30.27 1025 10 16.09344 0 0
9:55 pm 21:55 Cloudy 68 20 64 18 88 88 NE 3 6 30.27 1025 10 16.09344 0 0
10:15 pm 22:15 Cloudy 66 19 64 18 94 94 NE 3 6 30.27 1025 10 16.09344 0 0
10:35 pm 22:35 Partly Cloudy 66 19 64 18 94 94 ENE 3 6 30.27 1025 10 16.09344 0 0
10:55 pm 22:55 Partly Cloudy 66 19 63 17 88 88 Calm 30.27 1025 10 16.09344 0 0
11:15 pm 23:15 Mostly Cloudy 66 19 63 17 88 88 NE 6 9 30.27 1025 10 16.09344 0 0
11:35 pm 23:35 Mostly Cloudy 64 18 63 17 94 94 Calm 30.3 1026 10 16.09344 0 0
11:55 pm 23:55 Mostly Cloudy 64 18 63 17 94 94 NE 5 7 30.3 1026 10 16.09344 0 0

Powered by AerisWeather